This demonstration page uses our WeatherBlox Daily Observations layout. Learn more.

Left ArrowRight Arrow

34.74481, -87.66753

Hourly Observations for March 26, 2018

Temp ( °F °C ) Dew Point ( °F °C ) Humidity (%) Winds ( mph kmh ) Pressure ( in mb ) Visibility ( mi km ) Precip ( " mm )
12:53 am 00:53 Clear 51 10.6 46 7.8 83 83 SE 5 7 30.11 1020 10 16 0.00 0.00
1:53 am 01:53 Partly Cloudy 53 11.7 48 8.9 83 83 SE 13 20 30.11 1020 9 14 0.00 0.00
3:53 am 03:53 Cloudy with Light Rain 54 12.2 47 8.3 77 77 SE 12 19 30.14 1021 9 14 0.00 0.03
4:53 am 04:53 Cloudy 53 11.7 47 8.3 80 80 SE 10 17 30.15 1021 10 16 0.00 0.03
5:53 am 05:53 Cloudy 53 11.7 46 7.8 77 77 SE 16 26 30.18 1022 10 16 0.00 0.00
6:53 am 06:53 Cloudy 52 11.1 45 7.2 77 77 ESE 15 24 30.20 1023 10 16 0.00 0.03
7:53 am 07:53 Cloudy 52 11.1 44 6.7 75 75 SE 10 17 30.23 1024 10 16 0.00 0.00
8:53 am 08:53 Cloudy 52 11.1 43 6.1 72 72 SE 16 26 30.26 1025 10 16 0.00 0.00
9:53 am 09:53 Cloudy 53 11.7 43 6.1 69 69 SE 15 24 30.25 1025 10 16 0.00 0.00
10:53 am 10:53 Cloudy 54 12.2 43 6.1 67 67 SE 18 30 30.27 1025 10 16 0.00 0.00
11:53 am 11:53 Cloudy 55 12.8 44 6.7 67 67 SE 18 30 30.26 1025 10 16 0.00 0.00
12:53 pm 12:53 Cloudy 56 13.3 44 6.7 65 65 SE 17 28 30.24 1024 10 16 0.00 0.00
1:53 pm 13:53 Cloudy 57 13.9 45 7.2 64 64 SE 14 22 30.23 1024 10 16 0.00 0.00
2:53 pm 14:53 Cloudy 57 13.9 44 6.7 62 62 SE 13 20 30.22 1023 10 16 0.00 0.00
3:53 pm 15:53 Cloudy 57 13.9 44 6.7 62 62 SE 14 22 30.21 1023 10 16 0.00 0.00
4:53 pm 16:53 Cloudy 56 13.3 44 6.7 65 65 SSE 15 24 30.22 1023 10 16 0.00 0.00
5:53 pm 17:53 Cloudy 56 13.3 44 6.7 65 65 SE 9 15 30.23 1024 10 16 0.00 0.00
6:53 pm 18:53 Cloudy 55 12.8 43 6.1 64 64 SE 12 19 30.24 1024 10 16 0.00 0.00
7:53 pm 19:53 Cloudy 54 12.2 42 5.6 64 64 SE 15 24 30.25 1025 10 16 0.00 0.00
8:53 pm 20:53 Cloudy 54 12.2 42 5.6 64 64 SE 16 26 30.26 1025 10 16 0.00 0.00
9:53 pm 21:53 Cloudy 53 11.7 42 5.6 66 66 SE 14 22 30.27 1025 10 16 0.00 0.00
10:53 pm 22:53 Cloudy 53 11.7 42 5.6 66 66 SE 15 24 30.27 1025 10 16 0.00 0.00
11:53 pm 23:53 Cloudy 53 11.7 43 6.1 69 69 SE 13 20 30.28 1025 10 16 0.00 0.00

Powered by AerisWeather